McCook, NE

9:12 AM CDT on September 27, 2016 (GMT -0500)
McCook Municipal

Weather History for KMCK - April, 2015

Change the Weather History Date:

Monday, April 13, 2015

  Actual Average Record
Temperature  
Mean Temperature 49 °F 48 °F  
Max Temperature 68 °F 64 °F 92 °F (1936)
Min Temperature 30 °F 33 °F 16 °F (1997)
Degree Days  
Heating Degree Days 16    
Moisture  
Dew Point 25 °F    
Average Humidity 45    
Maximum Humidity 85    
Minimum Humidity 17    
Precipitation  
Precipitation 0.00 in 0.07 in 1.05 in (1987)
Month to date precipitation 0.41 0.80  
Year to date precipitation 0.78 3.29  
Sea Level Pressure  
Sea Level Pressure 30.21 in    
Wind  
Wind Speed 6 mph (SW)    
Max Wind Speed 12 mph    
Max Gust Speed -    
Visibility 10 miles    
Events      
T = Trace of Precipitation, MM = Missing Value Source: NWS Daily Summary

Daily Weather History Graph

Daily Weather History Graph

Search for Another Location

Airport or City:

Trip Planner

Search our weather history database for the weather conditions in past years. The results will help you decide how hot, cold, wet, or windy it might be!

Date:

Astronomy

Apr. 13, 2015 Rise Set
Actual Time 7:07 AM CDT 8:18 PM CDT
Civil Twilight 6:39 AM CDT 8:46 PM CDT
Nautical Twilight 6:06 AM CDT 9:20 PM CDT
Astronomical Twilight 5:31 AM CDT 9:55 PM CDT
Moon 3:45 AM CDT (4/13) 2:39 PM CDT (4/13)
Length of Visible Light 14h 07m
Length of Day
13h 11m
Waning Crescent, 33% of the Moon is Illuminated
Apr 13
Waning Crescent
Apr 18
New
Apr 25
First Quarter
May 3
Full
May 11
Last Quarter

Hourly Weather History & Observations

Time (CDT) Temp. Windchill Dew Point Humidity Pressure Visibility Wind Dir Wind Speed Gust Speed Precip Events Conditions
12:53 AM 43.0 °F 40.3 °F 30.9 °F 62% 30.04 in 10.0 mi North 4.6 mph - N/A   Clear
1:53 AM 41.0 °F 35.8 °F 30.0 °F 65% 30.07 in 10.0 mi North 8.1 mph - N/A   Clear
2:53 AM 37.0 °F 33.3 °F 28.0 °F 70% 30.09 in 10.0 mi South 4.6 mph - N/A   Clear
3:53 AM 37.4 °F 34.9 °F 30.2 °F 75% 30.15 in 10.0 mi WSW 3.5 mph - N/A   Clear
4:53 AM 34.0 °F 26.0 °F 28.0 °F 79% 30.14 in 10.0 mi WNW 10.4 mph - N/A   Clear
5:53 AM 33.1 °F 24.4 °F 28.0 °F 82% 30.15 in 10.0 mi West 11.5 mph - N/A   Clear
6:53 AM 30.9 °F - 27.0 °F 85% 30.20 in 10.0 mi Calm Calm - N/A   Clear
7:53 AM 33.1 °F 28.7 °F 28.0 °F 82% 30.24 in 10.0 mi WNW 4.6 mph - N/A   Clear
8:53 AM 37.0 °F 34.5 °F 30.9 °F 79% 30.27 in 10.0 mi SW 3.5 mph - N/A   Clear
9:53 AM 46.0 °F 43.1 °F 33.1 °F 61% 30.28 in 10.0 mi West 5.8 mph - N/A   Clear
10:53 AM 53.1 °F - 30.9 °F 43% 30.28 in 10.0 mi WSW 3.5 mph - N/A   Clear
11:53 AM 57.9 °F - 21.0 °F 24% 30.29 in 10.0 mi Calm Calm - N/A   Clear
12:53 PM 60.8 °F - 21.2 °F 22% 30.29 in 10.0 mi South 4.6 mph - N/A   Clear
1:53 PM 64.0 °F - 21.0 °F 19% 30.27 in 10.0 mi North - - N/A   Clear
2:53 PM 64.0 °F - 21.0 °F 19% 30.24 in 10.0 mi Variable 6.9 mph - N/A   Clear
3:53 PM 66.9 °F - 21.9 °F 18% 30.21 in 10.0 mi South 10.4 mph - N/A   Clear
4:53 PM 68.0 °F - 21.0 °F 17% 30.21 in 10.0 mi SW 5.8 mph - N/A   Clear
5:53 PM 66.9 °F - 21.0 °F 17% 30.21 in 10.0 mi South 8.1 mph - N/A   Clear
6:53 PM 66.2 °F - 21.2 °F 18% 30.20 in 10.0 mi SSE 8.1 mph - N/A   Clear
7:53 PM 63.0 °F - 21.9 °F 21% 30.22 in 10.0 mi South 8.1 mph - N/A   Clear
8:53 PM 57.0 °F - 24.1 °F 28% 30.22 in 10.0 mi SSE 6.9 mph - N/A   Clear
9:53 PM 52.0 °F - 24.1 °F 34% 30.24 in 10.0 mi South 6.9 mph - N/A   Clear
10:53 PM 51.1 °F - 23.0 °F 33% 30.23 in 10.0 mi South 5.8 mph - N/A   Clear
11:53 PM 50.0 °F - 23.0 °F 35% 30.22 in 10.0 mi South 10.4 mph - N/A   Clear